User: anonymous   Login
Location: ????????
(38.4362°N, 22.8767°E)
Time: 11:16:40
(UTC+00:00)
Language:

SL-16 R/B - Orbit

View from above orbital plane
View from above orbital plane
View from above satellite
View from above satellite

Ground track
Ground track

The orbit data is extracted from the following two-line orbital elements,

1 28353U 04021B   24167.89090860  .00000331  00000-0  19777-3 0  9999
2 28353  71.0009 118.2080 0007227 276.1294  83.9005 14.14423804 33494
Epoch (UTC): 15 June 2024 21:22:54
Eccentricity: 0.0007227
inclination: 71.0009°
perigee height: 839 km
apogee height: 849 km
right ascension of ascending node: 118.2080°
argument of perigee: 276.1294°
revolutions per day: 14.14423804
mean anomaly at epoch: 83.9005°
orbit number at epoch: 3349

The dashed part of the orbit path shows where the satellite is in the earth's shadow,  

DLR